Time,TemperatureF,DewpointF,PressureIn,WindDirection,WindDirectionDegrees,WindSpeedMPH,WindSpeedGustMPH,Humidity,HourlyPrecipIn,Conditions,Clouds,dailyrainin,SoftwareType,DateUTC
2013-02-27 00:03:00,35.1,6.8,30.11,WSW,247,0.0,0.0,30,0.00,,,0.00,VWS V14.01,2013-02-27 08:03:00,
2013-02-27 00:09:00,34.9,6.6,30.11,WSW,246,0.0,2.7,30,0.00,,,0.00,VWS V14.01,2013-02-27 08:09:00,
2013-02-27 00:14:00,34.7,6.4,30.11,SW,220,2.7,2.7,30,0.00,,,0.00,VWS V14.01,2013-02-27 08:14:00,
2013-02-27 00:20:00,34.7,6.4,30.11,SW,220,2.7,2.7,30,0.00,,,0.00,VWS V14.01,2013-02-27 08:20:00,
2013-02-27 00:25:00,34.9,6.6,30.11,SW,219,6.3,6.3,30,0.00,,,0.00,VWS V14.01,2013-02-27 08:25:00,
2013-02-27 00:31:00,34.5,6.3,30.11,WSW,237,0.0,0.0,30,0.00,,,0.00,VWS V14.01,2013-02-27 08:31:00,
2013-02-27 00:36:00,34.3,6.1,30.11,SW,226,0.0,0.0,30,0.00,,,0.00,VWS V14.01,2013-02-27 08:36:00,
2013-02-27 00:41:00,34.3,6.1,30.11,SW,226,0.0,0.0,30,0.00,,,0.00,VWS V14.01,2013-02-27 08:41:00,
2013-02-27 00:46:00,34.2,6.0,30.11,SW,226,0.0,0.0,30,0.00,,,0.00,VWS V14.01,2013-02-27 08:46:00,
2013-02-27 00:52:00,34.0,5.8,30.11,SW,226,0.0,0.0,30,0.00,,,0.00,VWS V14.01,2013-02-27 08:52:00,
2013-02-27 00:57:00,33.8,5.7,30.11,SW,226,0.0,0.0,30,0.00,,,0.00,VWS V14.01,2013-02-27 08:57:00,
2013-02-27 01:02:00,33.8,5.7,30.11,SW,226,0.0,0.0,30,0.00,,,0.00,VWS V14.01,2013-02-27 09:02:00,
2013-02-27 01:07:00,33.8,5.7,30.11,SW,226,0.0,0.0,30,0.00,,,0.00,VWS V14.01,2013-02-27 09:07:00,
2013-02-27 01:13:00,33.8,5.7,30.11,SW,226,0.0,0.0,30,0.00,,,0.00,VWS V14.01,2013-02-27 09:13:00,
2013-02-27 01:18:00,33.6,6.2,30.11,SW,226,0.0,0.0,31,0.00,,,0.00,VWS V14.01,2013-02-27 09:18:00,
2013-02-27 01:23:00,33.6,6.2,30.09,SW,226,0.0,0.0,31,0.00,,,0.00,VWS V14.01,2013-02-27 09:23:00,
2013-02-27 01:28:00,33.6,6.2,30.09,SW,226,0.0,0.0,31,0.00,,,0.00,VWS V14.01,2013-02-27 09:28:00,
2013-02-27 01:33:00,33.4,6.1,30.09,SW,226,0.0,0.0,31,0.00,,,0.00,VWS V14.01,2013-02-27 09:33:00,
2013-02-27 01:38:00,33.4,6.1,30.11,SW,226,0.0,0.0,31,0.00,,,0.00,VWS V14.01,2013-02-27 09:38:00,
2013-02-27 01:44:00,33.4,6.1,30.11,SW,226,0.0,0.0,31,0.00,,,0.00,VWS V14.01,2013-02-27 09:44:00,
2013-02-27 01:49:00,33.4,6.1,30.11,SW,226,0.0,0.0,31,0.00,,,0.00,VWS V14.01,2013-02-27 09:49:00,
2013-02-27 01:54:00,33.4,6.1,30.11,SW,226,0.0,0.0,31,0.00,,,0.00,VWS V14.01,2013-02-27 09:54:00,
2013-02-27 01:59:00,33.6,6.2,30.11,SW,226,0.0,0.0,31,0.00,,,0.00,VWS V14.01,2013-02-27 09:59:00,
2013-02-27 02:05:00,33.6,6.2,30.11,SW,226,0.0,0.0,31,0.00,,,0.00,VWS V14.01,2013-02-27 10:05:00,
2013-02-27 02:10:00,33.6,6.2,30.11,SW,226,0.0,0.0,31,0.00,,,0.00,VWS V14.01,2013-02-27 10:10:00,
2013-02-27 02:15:00,33.6,6.2,30.11,SW,226,0.0,0.0,31,0.00,,,0.00,VWS V14.01,2013-02-27 10:15:00,
2013-02-27 02:20:00,33.6,6.2,30.11,SW,226,0.0,0.0,31,0.00,,,0.00,VWS V14.01,2013-02-27 10:20:00,
2013-02-27 02:26:00,33.6,6.2,30.11,SW,226,0.0,0.0,31,0.00,,,0.00,VWS V14.01,2013-02-27 10:26:00,
2013-02-27 02:32:00,33.6,6.2,30.11,SW,226,0.0,0.0,31,0.00,,,0.00,VWS V14.01,2013-02-27 10:32:00,
2013-02-27 02:37:00,33.6,6.2,30.11,SW,226,0.0,0.0,31,0.00,,,0.00,VWS V14.01,2013-02-27 10:37:00,
2013-02-27 02:43:00,33.6,6.2,30.11,SW,226,0.0,0.0,31,0.00,,,0.00,VWS V14.01,2013-02-27 10:43:00,
2013-02-27 02:48:00,33.6,6.2,30.11,SW,226,0.0,0.0,31,0.00,,,0.00,VWS V14.01,2013-02-27 10:48:00,
2013-02-27 02:53:00,33.4,6.1,30.11,SW,226,0.0,0.0,31,0.00,,,0.00,VWS V14.01,2013-02-27 10:53:00,
2013-02-27 02:58:00,33.4,6.1,30.11,SW,226,0.0,0.0,31,0.00,,,0.00,VWS V14.01,2013-02-27 10:58:00,
2013-02-27 03:04:00,33.4,6.1,30.11,SW,226,0.0,0.0,31,0.00,,,0.00,VWS V14.01,2013-02-27 11:04:00,
2013-02-27 03:09:00,33.3,5.9,30.11,SW,226,0.0,0.0,31,0.00,,,0.00,VWS V14.01,2013-02-27 11:09:00,
2013-02-27 03:14:00,33.3,5.9,30.11,SW,226,0.0,0.0,31,0.00,,,0.00,VWS V14.01,2013-02-27 11:14:00,
2013-02-27 03:19:00,33.3,5.9,30.11,SW,226,0.0,0.0,31,0.00,,,0.00,VWS V14.01,2013-02-27 11:19:00,
2013-02-27 03:24:00,33.3,5.9,30.11,SW,226,0.0,0.0,31,0.00,,,0.00,VWS V14.01,2013-02-27 11:24:00,
2013-02-27 03:30:00,33.3,5.9,30.11,SW,226,0.0,0.0,31,0.00,,,0.00,VWS V14.01,2013-02-27 11:30:00,
2013-02-27 03:35:00,33.3,5.9,30.11,SW,226,0.0,0.0,31,0.00,,,0.00,VWS V14.01,2013-02-27 11:35:00,
2013-02-27 03:40:00,33.3,5.9,30.11,SW,226,0.0,0.0,31,0.00,,,0.00,VWS V14.01,2013-02-27 11:40:00,
2013-02-27 03:46:00,33.4,6.1,30.11,SW,226,0.0,0.0,31,0.00,,,0.00,VWS V14.01,2013-02-27 11:46:00,
2013-02-27 03:51:00,33.3,5.9,30.11,SW,226,0.0,0.0,31,0.00,,,0.00,VWS V14.01,2013-02-27 11:51:00,
2013-02-27 03:57:00,33.3,5.9,30.11,SW,226,0.0,0.0,31,0.00,,,0.00,VWS V14.01,2013-02-27 11:57:00,
2013-02-27 04:02:00,33.3,5.9,30.11,SW,226,0.0,0.0,31,0.00,,,0.00,VWS V14.01,2013-02-27 12:02:00,
2013-02-27 04:08:00,33.3,5.9,30.11,SW,226,0.0,0.0,31,0.00,,,0.00,VWS V14.01,2013-02-27 12:08:00,
2013-02-27 04:14:00,33.4,6.1,30.11,SW,226,0.0,0.0,31,0.00,,,0.00,VWS V14.01,2013-02-27 12:14:00,
2013-02-27 04:19:00,33.4,6.1,30.11,SW,227,0.0,0.0,31,0.00,,,0.00,VWS V14.01,2013-02-27 12:19:00,
2013-02-27 04:24:00,33.4,6.1,30.11,SW,227,0.0,0.0,31,0.00,,,0.00,VWS V14.01,2013-02-27 12:24:00,
2013-02-27 04:30:00,33.4,6.1,30.11,SW,227,0.0,0.0,31,0.00,,,0.00,VWS V14.01,2013-02-27 12:30:00,
2013-02-27 04:35:00,33.4,6.1,30.11,SW,227,0.0,0.0,31,0.00,,,0.00,VWS V14.01,2013-02-27 12:35:00,
2013-02-27 04:40:00,33.4,6.1,30.11,SW,227,0.0,0.0,31,0.00,,,0.00,VWS V14.01,2013-02-27 12:40:00,
2013-02-27 04:45:00,33.4,6.1,30.11,SW,227,0.0,0.0,31,0.00,,,0.00,VWS V14.01,2013-02-27 12:45:00,
2013-02-27 04:50:00,33.4,6.1,30.11,SW,227,0.0,0.0,31,0.00,,,0.00,VWS V14.01,2013-02-27 12:50:00,
2013-02-27 04:55:00,33.4,6.1,30.11,SW,227,0.0,0.0,31,0.00,,,0.00,VWS V14.01,2013-02-27 12:55:00,
2013-02-27 05:01:00,33.6,6.2,30.11,SW,227,0.0,0.0,31,0.00,,,0.00,VWS V14.01,2013-02-27 13:01:00,
2013-02-27 05:07:00,33.4,6.1,30.11,SW,227,0.0,0.0,31,0.00,,,0.00,VWS V14.01,2013-02-27 13:07:00,
2013-02-27 05:13:00,33.6,6.2,30.11,SW,227,0.0,0.0,31,0.00,,,0.00,VWS V14.01,2013-02-27 13:13:00,
2013-02-27 05:18:00,33.6,6.2,30.11,SW,227,0.0,0.0,31,0.00,,,0.00,VWS V14.01,2013-02-27 13:18:00,
2013-02-27 05:23:00,33.6,6.2,30.11,SW,227,0.0,0.0,31,0.00,,,0.00,VWS V14.01,2013-02-27 13:23:00,
2013-02-27 05:28:00,33.6,6.2,30.11,SW,227,0.0,0.0,31,0.00,,,0.00,VWS V14.01,2013-02-27 13:28:00,
2013-02-27 05:33:00,33.8,6.4,30.11,SW,227,0.0,0.0,31,0.00,,,0.00,VWS V14.01,2013-02-27 13:33:00,
2013-02-27 05:39:00,33.8,6.4,30.14,SW,227,0.0,0.0,31,0.00,,,0.00,VWS V14.01,2013-02-27 13:39:00,
2013-02-27 05:45:00,33.8,6.4,30.14,SW,227,0.0,0.0,31,0.00,,,0.00,VWS V14.01,2013-02-27 13:45:00,
2013-02-27 05:50:00,33.8,6.4,30.14,SW,227,0.0,0.0,31,0.00,,,0.00,VWS V14.01,2013-02-27 13:50:00,
2013-02-27 05:56:00,33.8,6.4,30.14,SW,227,0.0,0.0,31,0.00,,,0.00,VWS V14.01,2013-02-27 13:56:00,
2013-02-27 06:01:00,33.8,6.4,30.14,SW,227,0.0,0.0,31,0.00,,,0.00,VWS V14.01,2013-02-27 14:01:00,
2013-02-27 06:06:00,33.8,6.4,30.14,SW,227,0.0,0.0,31,0.00,,,0.00,VWS V14.01,2013-02-27 14:06:00,
2013-02-27 06:11:00,33.6,6.2,30.14,SW,230,0.0,0.0,31,0.00,,,0.00,VWS V14.01,2013-02-27 14:11:00,
2013-02-27 06:16:00,33.6,6.2,30.14,SW,230,0.0,0.0,31,0.00,,,0.00,VWS V14.01,2013-02-27 14:16:00,
2013-02-27 06:22:00,33.6,6.2,30.14,SW,230,0.0,0.0,31,0.00,,,0.00,VWS V14.01,2013-02-27 14:22:00,
2013-02-27 06:27:00,33.6,6.2,30.14,SW,230,0.0,0.0,31,0.00,,,0.00,VWS V14.01,2013-02-27 14:27:00,
2013-02-27 06:32:00,33.6,6.2,30.14,SW,230,0.0,0.0,31,0.00,,,0.00,VWS V14.01,2013-02-27 14:32:00,
2013-02-27 06:37:00,33.4,6.1,30.14,SW,230,0.0,0.0,31,0.00,,,0.00,VWS V14.01,2013-02-27 14:37:00,
2013-02-27 06:42:00,33.4,6.1,30.14,SW,230,0.0,0.0,31,0.00,,,0.00,VWS V14.01,2013-02-27 14:42:00,
2013-02-27 06:48:00,33.4,6.1,30.14,SW,230,0.0,0.0,31,0.00,,,0.00,VWS V14.01,2013-02-27 14:48:00,
2013-02-27 06:53:00,33.4,6.1,30.14,NW,320,0.0,0.0,31,0.00,,,0.00,VWS V14.01,2013-02-27 14:53:00,
2013-02-27 06:58:00,33.3,5.9,30.14,NNW,342,0.0,0.0,31,0.00,,,0.00,VWS V14.01,2013-02-27 14:58:00,
2013-02-27 07:03:00,33.3,5.9,30.14,NNW,342,0.0,0.0,31,0.00,,,0.00,VWS V14.01,2013-02-27 15:03:00,
2013-02-27 07:09:00,33.3,5.9,30.14,NNE,19,0.0,0.0,31,0.00,,,0.00,VWS V14.01,2013-02-27 15:09:00,
2013-02-27 07:14:00,33.3,5.9,30.14,NW,324,0.0,0.0,31,0.00,,,0.00,VWS V14.01,2013-02-27 15:14:00,
2013-02-27 07:19:00,33.3,5.9,30.14,WSW,239,2.7,2.7,31,0.00,,,0.00,VWS V14.01,2013-02-27 15:19:00,
2013-02-27 07:24:00,33.4,6.1,30.14,North,0,0.0,2.7,31,0.00,,,0.00,VWS V14.01,2013-02-27 15:24:00,
2013-02-27 07:29:00,33.4,6.1,30.14,NW,313,0.0,0.0,31,0.00,,,0.00,VWS V14.01,2013-02-27 15:29:00,
2013-02-27 07:35:00,33.4,6.1,30.14,NW,313,0.0,0.0,31,0.00,,,0.00,VWS V14.01,2013-02-27 15:35:00,
2013-02-27 07:40:00,33.4,6.1,30.14,NW,313,0.0,0.0,31,0.00,,,0.00,VWS V14.01,2013-02-27 15:40:00,
2013-02-27 07:46:00,33.6,6.2,30.14,NW,313,0.0,0.0,31,0.00,,,0.00,VWS V14.01,2013-02-27 15:46:00,
2013-02-27 07:52:00,33.6,6.2,30.17,NW,313,0.0,0.0,31,0.00,,,0.00,VWS V14.01,2013-02-27 15:52:00,
2013-02-27 07:57:00,34.0,5.8,30.17,NW,313,0.0,0.0,30,0.00,,,0.00,VWS V14.01,2013-02-27 15:57:00,
2013-02-27 08:02:00,34.2,6.0,30.17,NW,313,0.0,0.0,30,0.00,,,0.00,VWS V14.01,2013-02-27 16:02:00,
2013-02-27 08:08:00,34.0,5.8,30.17,NW,313,0.0,0.0,30,0.00,,,0.00,VWS V14.01,2013-02-27 16:08:00,
2013-02-27 08:14:00,34.0,5.8,30.17,NW,313,0.0,0.0,30,0.00,,,0.00,VWS V14.01,2013-02-27 16:14:00,
2013-02-27 08:19:00,33.8,5.7,30.17,NW,313,0.0,0.0,30,0.00,,,0.00,VWS V14.01,2013-02-27 16:19:00,
2013-02-27 08:25:00,34.0,5.8,30.17,NW,313,0.0,0.0,30,0.00,,,0.00,VWS V14.01,2013-02-27 16:25:00,
2013-02-27 08:30:00,34.0,5.8,30.17,NW,313,0.0,0.0,30,0.00,,,0.00,VWS V14.01,2013-02-27 16:30:00,
2013-02-27 08:35:00,34.2,6.0,30.17,NW,313,0.0,0.0,30,0.00,,,0.00,VWS V14.01,2013-02-27 16:35:00,
2013-02-27 08:40:00,34.2,6.0,30.17,NW,313,0.0,0.0,30,0.00,,,0.00,VWS V14.01,2013-02-27 16:40:00,
2013-02-27 08:46:00,34.5,6.3,30.17,WNW,299,0.0,0.0,30,0.00,,,0.00,VWS V14.01,2013-02-27 16:46:00,
2013-02-27 08:51:00,35.2,6.9,30.17,SSW,206,2.7,3.1,30,0.00,,,0.00,VWS V14.01,2013-02-27 16:51:00,
2013-02-27 08:56:00,35.2,6.9,30.17,SSW,200,6.3,6.3,30,0.00,,,0.00,VWS V14.01,2013-02-27 16:56:00,
2013-02-27 09:01:00,36.5,8.0,30.17,West,274,5.4,10.5,30,0.00,,,0.00,VWS V14.01,2013-02-27 17:01:00,
2013-02-27 09:06:00,37.0,8.5,30.17,WSW,258,7.2,7.2,30,0.00,,,0.00,VWS V14.01,2013-02-27 17:06:00,
2013-02-27 09:12:00,37.4,8.1,30.17,West,281,4.0,4.0,29,0.00,,,0.00,VWS V14.01,2013-02-27 17:12:00,
2013-02-27 09:17:00,38.5,9.0,30.17,SW,220,10.5,10.5,29,0.00,,,0.00,VWS V14.01,2013-02-27 17:17:00,
2013-02-27 09:23:00,38.8,9.3,30.17,SW,229,8.3,8.3,29,0.00,,,0.00,VWS V14.01,2013-02-27 17:23:00,
2013-02-27 09:28:00,38.7,9.2,30.17,WSW,237,2.7,6.3,29,0.00,,,0.00,VWS V14.01,2013-02-27 17:28:00,
2013-02-27 09:34:00,38.8,9.3,30.17,SSW,198,6.3,6.3,29,0.00,,,0.00,VWS V14.01,2013-02-27 17:34:00,
2013-02-27 09:39:00,39.2,8.9,30.17,SW,217,10.5,10.5,28,0.00,,,0.00,VWS V14.01,2013-02-27 17:39:00,
2013-02-27 09:44:00,39.2,8.9,30.17,WSW,238,8.3,8.3,28,0.00,,,0.00,VWS V14.01,2013-02-27 17:44:00,
2013-02-27 09:49:00,39.2,8.9,30.17,SW,224,7.2,10.5,28,0.00,,,0.00,VWS V14.01,2013-02-27 17:49:00,
2013-02-27 09:55:00,39.2,8.9,30.17,SW,229,7.6,7.6,28,0.00,,,0.00,VWS V14.01,2013-02-27 17:55:00,
2013-02-27 10:00:00,39.4,9.0,30.17,SW,224,8.7,10.1,28,0.00,,,0.00,VWS V14.01,2013-02-27 18:00:00,
2013-02-27 10:05:00,39.7,9.3,30.17,SW,214,5.4,8.3,28,0.00,,,0.00,VWS V14.01,2013-02-27 18:05:00,
2013-02-27 10:11:00,39.6,9.2,30.17,SSW,194,5.8,8.1,28,0.00,,,0.00,VWS V14.01,2013-02-27 18:11:00,
2013-02-27 10:16:00,39.9,9.5,30.17,SW,231,2.7,2.7,28,0.00,,,0.00,VWS V14.01,2013-02-27 18:16:00,
2013-02-27 10:22:00,40.3,9.8,30.17,SSW,211,7.6,7.6,28,0.00,,,0.00,VWS V14.01,2013-02-27 18:22:00,
2013-02-27 10:27:00,40.6,10.1,30.17,SW,223,6.3,6.3,28,0.00,,,0.00,VWS V14.01,2013-02-27 18:27:00,
2013-02-27 10:33:00,41.0,10.4,30.17,SW,223,7.6,8.1,28,0.00,,,0.00,VWS V14.01,2013-02-27 18:33:00,
2013-02-27 10:38:00,41.0,10.4,30.17,SW,233,5.8,5.8,28,0.00,,,0.00,VWS V14.01,2013-02-27 18:38:00,
2013-02-27 10:43:00,40.8,8.6,30.17,WSW,256,4.9,6.7,26,0.00,,,0.00,VWS V14.01,2013-02-27 18:43:00,
2013-02-27 10:48:00,40.8,10.2,30.17,SW,226,5.4,5.4,28,0.00,,,0.00,VWS V14.01,2013-02-27 18:48:00,
2013-02-27 10:53:00,41.0,10.4,30.17,SSW,211,2.7,3.1,28,0.00,,,0.00,VWS V14.01,2013-02-27 18:53:00,
2013-02-27 10:58:00,40.8,10.2,30.17,SSW,200,4.0,4.0,28,0.00,,,0.00,VWS V14.01,2013-02-27 18:58:00,
2013-02-27 11:04:00,41.2,10.6,30.17,SW,233,6.3,6.3,28,0.00,,,0.00,VWS V14.01,2013-02-27 19:04:00,
2013-02-27 11:10:00,41.9,9.5,30.17,SW,220,8.7,10.5,26,0.00,,,0.00,VWS V14.01,2013-02-27 19:10:00,
2013-02-27 11:15:00,41.2,8.9,30.17,SW,219,5.8,6.3,26,0.00,,,0.00,VWS V14.01,2013-02-27 19:15:00,
2013-02-27 11:20:00,40.8,10.2,30.17,SSW,199,5.8,5.8,28,0.00,,,0.00,VWS V14.01,2013-02-27 19:20:00,
2013-02-27 11:25:00,41.0,10.4,30.17,SSW,200,5.8,5.8,28,0.00,,,0.00,VWS V14.01,2013-02-27 19:25:00,
2013-02-27 11:31:00,41.0,10.4,30.17,SW,218,8.1,8.1,28,0.00,,,0.00,VWS V14.01,2013-02-27 19:31:00,
2013-02-27 11:36:00,41.2,10.6,30.17,SSW,202,8.7,8.7,28,0.00,,,0.00,VWS V14.01,2013-02-27 19:36:00,
2013-02-27 11:41:00,41.5,10.9,30.17,SW,226,6.3,6.7,28,0.00,,,0.00,VWS V14.01,2013-02-27 19:41:00,
2013-02-27 11:47:00,41.9,11.2,30.17,SW,216,5.4,6.3,28,0.00,,,0.00,VWS V14.01,2013-02-27 19:47:00,
2013-02-27 11:53:00,41.9,11.2,30.17,SSW,205,4.0,4.0,28,0.00,,,0.00,VWS V14.01,2013-02-27 19:53:00,
2013-02-27 11:59:00,41.7,11.0,30.17,SSW,209,5.8,5.8,28,0.00,,,0.00,VWS V14.01,2013-02-27 19:59:00,
2013-02-27 12:04:00,41.9,11.2,30.17,SSW,196,5.4,5.4,28,0.00,,,0.00,VWS V14.01,2013-02-27 20:04:00,
2013-02-27 12:09:00,42.4,11.7,30.17,SSW,207,5.4,5.4,28,0.00,,,0.00,VWS V14.01,2013-02-27 20:09:00,
2013-02-27 12:15:00,42.3,11.5,30.17,SSW,200,3.1,3.1,28,0.00,,,0.00,VWS V14.01,2013-02-27 20:15:00,
2013-02-27 12:20:00,42.3,11.5,30.17,SSW,199,8.1,8.7,28,0.00,,,0.00,VWS V14.01,2013-02-27 20:20:00,
2013-02-27 12:25:00,42.3,11.5,30.17,SSW,198,7.2,7.6,28,0.00,,,0.00,VWS V14.01,2013-02-27 20:25:00,
2013-02-27 12:31:00,42.4,11.7,30.17,SW,214,8.1,10.5,28,0.00,,,0.00,VWS V14.01,2013-02-27 20:31:00,
2013-02-27 12:36:00,42.4,11.7,30.17,SW,236,8.3,8.3,28,0.00,,,0.00,VWS V14.01,2013-02-27 20:36:00,
2013-02-27 12:42:00,42.8,12.0,30.17,SW,226,8.3,8.3,28,0.00,,,0.00,VWS V14.01,2013-02-27 20:42:00,
2013-02-27 12:47:00,42.8,12.0,30.17,SW,220,8.1,8.1,28,0.00,,,0.00,VWS V14.01,2013-02-27 20:47:00,
2013-02-27 12:52:00,43.7,10.2,30.17,SSW,212,7.6,8.3,25,0.00,,,0.00,VWS V14.01,2013-02-27 20:52:00,
2013-02-27 12:58:00,44.1,10.5,30.17,SSW,210,4.9,4.9,25,0.00,,,0.00,VWS V14.01,2013-02-27 20:58:00,
2013-02-27 13:03:00,44.4,10.8,30.17,SSW,210,4.9,4.9,25,0.00,,,0.00,VWS V14.01,2013-02-27 21:03:00,
2013-02-27 13:09:00,44.6,11.0,30.17,WSW,248,2.7,2.7,25,0.00,,,0.00,VWS V14.01,2013-02-27 21:09:00,
2013-02-27 13:14:00,45.0,11.3,30.17,SW,226,8.7,10.1,25,0.00,,,0.00,VWS V14.01,2013-02-27 21:14:00,
2013-02-27 13:19:00,45.3,11.6,30.17,WNW,291,0.0,0.0,25,0.00,,,0.00,VWS V14.01,2013-02-27 21:19:00,
2013-02-27 13:25:00,46.2,12.4,30.17,SSW,207,10.1,10.1,25,0.00,,,0.00,VWS V14.01,2013-02-27 21:25:00,
2013-02-27 13:30:00,45.9,12.0,30.17,SW,215,11.9,11.9,25,0.00,,,0.00,VWS V14.01,2013-02-27 21:30:00,
2013-02-27 13:36:00,45.5,11.7,30.17,SSW,210,7.6,7.6,25,0.00,,,0.00,VWS V14.01,2013-02-27 21:36:00,
2013-02-27 13:41:00,45.7,11.9,30.17,SW,225,8.1,8.1,25,0.00,,,0.00,VWS V14.01,2013-02-27 21:41:00,
2013-02-27 13:47:00,45.9,12.0,30.17,SW,223,3.6,3.6,25,0.00,,,0.00,VWS V14.01,2013-02-27 21:47:00,
2013-02-27 13:53:00,46.0,12.2,30.17,SSW,200,7.6,7.6,25,0.00,,,0.00,VWS V14.01,2013-02-27 21:53:00,
2013-02-27 13:58:00,44.4,10.8,30.17,SSE,167,6.3,6.3,25,0.00,,,0.00,VWS V14.01,2013-02-27 21:58:00,
2013-02-27 14:03:00,43.9,10.4,30.17,SW,220,10.1,10.1,25,0.00,,,0.00,VWS V14.01,2013-02-27 22:03:00,
2013-02-27 14:09:00,44.4,13.4,30.17,SW,228,7.6,7.6,28,0.00,,,0.00,VWS V14.01,2013-02-27 22:09:00,
2013-02-27 14:15:00,43.0,12.1,30.17,SSW,209,5.4,6.3,28,0.00,,,0.00,VWS V14.01,2013-02-27 22:15:00,
2013-02-27 14:21:00,42.8,12.0,30.17,SSW,211,10.1,10.1,28,0.00,,,0.00,VWS V14.01,2013-02-27 22:21:00,
2013-02-27 14:26:00,43.5,12.6,30.17,WSW,252,4.9,4.9,28,0.00,,,0.00,VWS V14.01,2013-02-27 22:26:00,
2013-02-27 14:31:00,43.2,12.3,30.17,SW,231,2.7,7.6,28,0.00,,,0.00,VWS V14.01,2013-02-27 22:31:00,
2013-02-27 14:36:00,43.5,12.6,30.17,SW,231,2.7,2.7,28,0.00,,,0.00,VWS V14.01,2013-02-27 22:36:00,
2013-02-27 14:41:00,42.6,11.8,30.17,South,186,6.7,6.7,28,0.00,,,0.00,VWS V14.01,2013-02-27 22:41:00,
2013-02-27 14:46:00,43.3,12.4,30.17,WSW,242,7.2,8.7,28,0.00,,,0.00,VWS V14.01,2013-02-27 22:46:00,
2013-02-27 14:51:00,43.7,12.8,30.17,SW,234,5.8,5.8,28,0.00,,,0.00,VWS V14.01,2013-02-27 22:51:00,
2013-02-27 14:57:00,43.5,12.6,30.17,SSW,213,5.8,5.8,28,0.00,,,0.00,VWS V14.01,2013-02-27 22:57:00,
2013-02-27 15:02:00,43.3,12.4,30.17,SW,224,3.1,3.6,28,0.00,,,0.00,VWS V14.01,2013-02-27 23:02:00,
2013-02-27 15:07:00,43.7,12.8,30.14,SW,220,4.9,5.8,28,0.00,,,0.00,VWS V14.01,2013-02-27 23:07:00,
2013-02-27 15:13:00,43.7,12.8,30.14,SSW,213,3.1,5.8,28,0.00,,,0.00,VWS V14.01,2013-02-27 23:13:00,
2013-02-27 15:19:00,43.9,12.9,30.14,SW,234,5.4,5.4,28,0.00,,,0.00,VWS V14.01,2013-02-27 23:19:00,
2013-02-27 15:24:00,44.1,13.1,30.17,SSW,213,5.4,5.4,28,0.00,,,0.00,VWS V14.01,2013-02-27 23:24:00,
2013-02-27 15:30:00,44.2,13.2,30.17,South,187,0.0,0.0,28,0.00,,,0.00,VWS V14.01,2013-02-27 23:30:00,
2013-02-27 15:35:00,44.4,13.4,30.17,South,183,4.0,4.0,28,0.00,,,0.00,VWS V14.01,2013-02-27 23:35:00,
2013-02-27 15:40:00,44.2,13.2,30.17,West,265,2.7,3.1,28,0.00,,,0.00,VWS V14.01,2013-02-27 23:40:00,
2013-02-27 15:46:00,44.2,13.2,30.17,SW,225,2.2,2.2,28,0.00,,,0.00,VWS V14.01,2013-02-27 23:46:00,
2013-02-27 15:51:00,43.9,12.9,30.17,NW,313,0.0,0.0,28,0.00,,,0.00,VWS V14.01,2013-02-27 23:51:00,
2013-02-27 15:57:00,44.1,13.1,30.17,SSE,163,5.4,5.4,28,0.00,,,0.00,VWS V14.01,2013-02-27 23:57:00,
2013-02-27 16:02:00,43.7,12.8,30.17,SW,220,5.8,5.8,28,0.00,,,0.00,VWS V14.01,2013-02-28 00:02:00,
2013-02-27 16:08:00,43.9,12.9,30.17,WSW,258,0.0,0.0,28,0.00,,,0.00,VWS V14.01,2013-02-28 00:08:00,
2013-02-27 16:13:00,43.7,12.8,30.17,SSW,212,0.0,0.0,28,0.00,,,0.00,VWS V14.01,2013-02-28 00:13:00,
2013-02-27 16:18:00,43.3,12.4,30.17,SW,222,5.8,5.8,28,0.00,,,0.00,VWS V14.01,2013-02-28 00:18:00,
2013-02-27 16:24:00,43.3,12.4,30.17,West,277,4.0,13.2,28,0.00,,,0.00,VWS V14.01,2013-02-28 00:24:00,
2013-02-27 16:29:00,43.0,12.1,30.17,West,267,3.6,3.6,28,0.00,,,0.00,VWS V14.01,2013-02-28 00:29:00,
2013-02-27 16:34:00,42.6,11.8,30.17,North,3,0.0,0.0,28,0.00,,,0.00,VWS V14.01,2013-02-28 00:34:00,
2013-02-27 16:40:00,42.1,11.3,30.17,WNW,288,0.0,0.0,28,0.00,,,0.00,VWS V14.01,2013-02-28 00:40:00,
2013-02-27 16:45:00,41.9,11.2,30.17,West,266,0.0,0.0,28,0.00,,,0.00,VWS V14.01,2013-02-28 00:45:00,
2013-02-27 16:50:00,41.7,11.0,30.17,NW,323,3.1,3.1,28,0.00,,,0.00,VWS V14.01,2013-02-28 00:50:00,
2013-02-27 16:55:00,41.7,11.0,30.14,NW,323,0.0,0.0,28,0.00,,,0.00,VWS V14.01,2013-02-28 00:55:00,
2013-02-27 17:01:00,41.2,10.6,30.14,NW,323,0.0,0.0,28,0.00,,,0.00,VWS V14.01,2013-02-28 01:01:00,
2013-02-27 17:06:00,41.4,10.7,30.14,NW,323,2.7,2.7,28,0.00,,,0.00,VWS V14.01,2013-02-28 01:06:00,
2013-02-27 17:11:00,41.2,10.6,30.14,NW,323,0.0,0.0,28,0.00,,,0.00,VWS V14.01,2013-02-28 01:11:00,
2013-02-27 17:16:00,41.0,10.4,30.14,NW,323,0.0,0.0,28,0.00,,,0.00,VWS V14.01,2013-02-28 01:16:00,
2013-02-27 17:22:00,41.2,10.6,30.14,NW,323,0.0,0.0,28,0.00,,,0.00,VWS V14.01,2013-02-28 01:22:00,
2013-02-27 17:27:00,41.0,10.4,30.14,SW,219,0.0,0.0,28,0.00,,,0.00,VWS V14.01,2013-02-28 01:27:00,
2013-02-27 17:33:00,41.2,10.6,30.14,WSW,241,0.0,0.0,28,0.00,,,0.00,VWS V14.01,2013-02-28 01:33:00,
2013-02-27 17:38:00,41.0,10.4,30.14,WSW,241,0.0,0.0,28,0.00,,,0.00,VWS V14.01,2013-02-28 01:38:00,
2013-02-27 17:43:00,40.8,11.0,30.14,WNW,294,0.0,0.0,29,0.00,,,0.00,VWS V14.01,2013-02-28 01:43:00,
2013-02-27 17:49:00,40.8,11.0,30.14,WNW,295,0.0,0.0,29,0.00,,,0.00,VWS V14.01,2013-02-28 01:49:00,
2013-02-27 17:54:00,40.6,10.9,30.14,WNW,295,0.0,0.0,29,0.00,,,0.00,VWS V14.01,2013-02-28 01:54:00,
2013-02-27 18:00:00,40.5,10.7,30.14,WNW,295,0.0,0.0,29,0.00,,,0.00,VWS V14.01,2013-02-28 02:00:00,
2013-02-27 18:05:00,40.5,10.7,30.14,SW,234,0.0,0.0,29,0.00,,,0.00,VWS V14.01,2013-02-28 02:05:00,
2013-02-27 18:10:00,40.6,10.9,30.14,West,266,0.0,0.0,29,0.00,,,0.00,VWS V14.01,2013-02-28 02:10:00,
2013-02-27 18:15:00,41.0,10.4,30.14,SW,218,4.9,4.9,28,0.00,,,0.00,VWS V14.01,2013-02-28 02:15:00,
2013-02-27 18:21:00,41.0,10.4,30.14,SW,229,0.0,2.7,28,0.00,,,0.00,VWS V14.01,2013-02-28 02:21:00,
2013-02-27 18:27:00,40.6,10.9,30.17,SW,218,5.4,5.4,29,0.00,,,0.00,VWS V14.01,2013-02-28 02:27:00,
2013-02-27 18:32:00,40.5,10.7,30.17,SW,218,5.8,5.8,29,0.00,,,0.00,VWS V14.01,2013-02-28 02:32:00,
2013-02-27 18:38:00,40.1,10.4,30.14,WSW,242,0.0,6.3,29,0.00,,,0.00,VWS V14.01,2013-02-28 02:38:00,
2013-02-27 18:43:00,39.9,10.2,30.14,WSW,242,0.0,0.0,29,0.00,,,0.00,VWS V14.01,2013-02-28 02:43:00,
2013-02-27 18:49:00,39.7,10.1,30.14,SW,221,0.0,0.0,29,0.00,,,0.00,VWS V14.01,2013-02-28 02:49:00,
2013-02-27 18:54:00,39.7,10.1,30.17,WNW,297,0.0,0.0,29,0.00,,,0.00,VWS V14.01,2013-02-28 02:54:00,
2013-02-27 18:59:00,39.6,9.9,30.17,WNW,283,0.0,0.0,29,0.00,,,0.00,VWS V14.01,2013-02-28 02:59:00,
2013-02-27 19:05:00,39.6,9.9,30.17,NW,324,0.0,0.0,29,0.00,,,0.00,VWS V14.01,2013-02-28 03:05:00,
2013-02-27 19:10:00,39.2,9.6,30.17,WSW,248,0.0,0.0,29,0.00,,,0.00,VWS V14.01,2013-02-28 03:10:00,
2013-02-27 19:16:00,39.2,9.6,30.17,South,184,0.0,0.0,29,0.00,,,0.00,VWS V14.01,2013-02-28 03:16:00,
2013-02-27 19:21:00,39.2,9.6,30.17,SSW,199,0.0,0.0,29,0.00,,,0.00,VWS V14.01,2013-02-28 03:21:00,
2013-02-27 19:26:00,39.0,9.5,30.14,SW,226,0.0,0.0,29,0.00,,,0.00,VWS V14.01,2013-02-28 03:26:00,
2013-02-27 19:31:00,39.0,9.5,30.14,SW,225,3.1,3.1,29,0.00,,,0.00,VWS V14.01,2013-02-28 03:31:00,
2013-02-27 19:37:00,39.0,9.5,30.14,SW,225,3.1,3.1,29,0.00,,,0.00,VWS V14.01,2013-02-28 03:37:00,
2013-02-27 19:42:00,38.8,9.3,30.14,SW,224,0.0,4.0,29,0.00,,,0.00,VWS V14.01,2013-02-28 03:42:00,
2013-02-27 19:48:00,38.8,9.3,30.14,SW,226,3.1,3.1,29,0.00,,,0.00,VWS V14.01,2013-02-28 03:48:00,
2013-02-27 19:53:00,39.0,9.5,30.17,SW,219,4.0,4.0,29,0.00,,,0.00,VWS V14.01,2013-02-28 03:53:00,
2013-02-27 20:00:00,39.0,9.5,30.17,WSW,237,4.5,4.5,29,0.00,,,0.00,VWS V14.01,2013-02-28 04:00:00,
2013-02-27 20:05:00,39.0,9.5,30.17,SW,224,3.6,6.3,29,0.00,,,0.00,VWS V14.01,2013-02-28 04:05:00,
2013-02-27 20:11:00,38.7,9.2,30.17,SW,219,0.0,0.0,29,0.00,,,0.00,VWS V14.01,2013-02-28 04:11:00,
2013-02-27 20:16:00,38.3,8.8,30.17,SW,219,0.0,0.0,29,0.00,,,0.00,VWS V14.01,2013-02-28 04:16:00,
2013-02-27 20:22:00,38.1,8.7,30.17,SW,224,2.7,2.7,29,0.00,,,0.00,VWS V14.01,2013-02-28 04:22:00,
2013-02-27 20:27:00,37.9,8.5,30.17,SW,236,3.6,3.6,29,0.00,,,0.00,VWS V14.01,2013-02-28 04:27:00,
2013-02-27 20:33:00,37.6,8.2,30.17,SW,221,3.1,3.1,29,0.00,,,0.00,VWS V14.01,2013-02-28 04:33:00,
2013-02-27 20:38:00,37.2,8.6,30.17,WSW,253,0.0,0.0,30,0.00,,,0.00,VWS V14.01,2013-02-28 04:38:00,
2013-02-27 20:44:00,37.0,8.5,30.17,WSW,253,0.0,0.0,30,0.00,,,0.00,VWS V14.01,2013-02-28 04:44:00,
2013-02-27 20:49:00,37.0,8.5,30.17,SW,231,0.0,0.0,30,0.00,,,0.00,VWS V14.01,2013-02-28 04:49:00,
2013-02-27 20:55:00,36.9,8.3,30.17,SW,231,0.0,0.0,30,0.00,,,0.00,VWS V14.01,2013-02-28 04:55:00,
2013-02-27 21:00:00,36.5,8.0,30.17,SW,231,0.0,0.0,30,0.00,,,0.00,VWS V14.01,2013-02-28 05:00:00,
2013-02-27 21:01:00,36.3,7.9,30.17,SW,231,0.0,0.0,30,0.00,,,0.00,VWS V14.01,2013-02-28 05:01:00,
2013-02-27 21:02:00,36.3,7.9,30.17,SW,231,0.0,0.0,30,0.00,,,0.00,VWS V14.01,2013-02-28 05:02:00,
2013-02-27 21:07:00,36.1,7.7,30.17,SW,231,0.0,0.0,30,0.00,,,0.00,VWS V14.01,2013-02-28 05:07:00,
2013-02-27 21:10:00,36.1,7.7,30.17,SW,231,0.0,0.0,30,0.00,,,0.00,VWS V14.01,2013-02-28 05:10:00,
2013-02-27 21:15:00,36.0,7.6,30.17,SW,231,0.0,0.0,30,0.00,,,0.00,VWS V14.01,2013-02-28 05:15:00,
2013-02-27 21:20:00,35.8,7.4,30.17,SW,231,0.0,0.0,30,0.00,,,0.00,VWS V14.01,2013-02-28 05:20:00,
2013-02-27 21:26:00,35.6,7.2,30.17,SW,231,0.0,0.0,30,0.00,,,0.00,VWS V14.01,2013-02-28 05:26:00,
2013-02-27 21:31:00,35.6,7.2,30.17,SW,231,0.0,0.0,30,0.00,,,0.00,VWS V14.01,2013-02-28 05:31:00,
2013-02-27 21:36:00,35.4,7.1,30.17,SW,231,0.0,0.0,30,0.00,,,0.00,VWS V14.01,2013-02-28 05:36:00,
2013-02-27 21:42:00,35.4,7.1,30.14,SW,231,0.0,0.0,30,0.00,,,0.00,VWS V14.01,2013-02-28 05:42:00,
2013-02-27 21:47:00,35.4,7.1,30.14,SW,231,0.0,0.0,30,0.00,,,0.00,VWS V14.01,2013-02-28 05:47:00,
2013-02-27 21:53:00,35.6,7.2,30.17,SW,231,0.0,0.0,30,0.00,,,0.00,VWS V14.01,2013-02-28 05:53:00,
2013-02-27 21:58:00,35.6,7.2,30.17,SW,231,0.0,0.0,30,0.00,,,0.00,VWS V14.01,2013-02-28 05:58:00,
2013-02-27 22:04:00,35.6,7.2,30.17,SW,231,0.0,0.0,30,0.00,,,0.00,VWS V14.01,2013-02-28 06:04:00,
2013-02-27 22:09:00,35.6,7.2,30.17,SW,231,0.0,0.0,30,0.00,,,0.00,VWS V14.01,2013-02-28 06:09:00,
2013-02-27 22:14:00,35.6,7.2,30.17,SW,231,0.0,0.0,30,0.00,,,0.00,VWS V14.01,2013-02-28 06:14:00,
2013-02-27 22:20:00,35.6,7.2,30.17,SW,231,0.0,0.0,30,0.00,,,0.00,VWS V14.01,2013-02-28 06:20:00,
2013-02-27 22:25:00,35.6,7.2,30.17,SW,231,0.0,0.0,30,0.00,,,0.00,VWS V14.01,2013-02-28 06:25:00,
2013-02-27 22:31:00,35.6,7.2,30.17,SW,231,0.0,0.0,30,0.00,,,0.00,VWS V14.01,2013-02-28 06:31:00,
2013-02-27 22:36:00,35.8,7.4,30.17,SW,231,0.0,0.0,30,0.00,,,0.00,VWS V14.01,2013-02-28 06:36:00,
2013-02-27 22:41:00,35.8,7.4,30.17,SW,231,0.0,0.0,30,0.00,,,0.00,VWS V14.01,2013-02-28 06:41:00,
2013-02-27 22:46:00,35.8,7.4,30.17,SW,231,0.0,0.0,30,0.00,,,0.00,VWS V14.01,2013-02-28 06:46:00,
2013-02-27 22:52:00,35.6,7.2,30.17,SW,231,0.0,0.0,30,0.00,,,0.00,VWS V14.01,2013-02-28 06:52:00,
2013-02-27 22:57:00,35.8,7.4,30.17,SW,231,0.0,0.0,30,0.00,,,0.00,VWS V14.01,2013-02-28 06:57:00,
2013-02-27 23:02:00,35.8,7.4,30.17,SW,231,0.0,0.0,30,0.00,,,0.00,VWS V14.01,2013-02-28 07:02:00,
2013-02-27 23:07:00,35.8,7.4,30.17,SW,231,0.0,0.0,30,0.00,,,0.00,VWS V14.01,2013-02-28 07:07:00,
2013-02-27 23:12:00,35.8,7.4,30.17,SW,231,0.0,0.0,30,0.00,,,0.00,VWS V14.01,2013-02-28 07:12:00,
2013-02-27 23:18:00,35.8,7.4,30.17,SW,231,0.0,0.0,30,0.00,,,0.00,VWS V14.01,2013-02-28 07:18:00,
2013-02-27 23:23:00,35.8,7.4,30.17,SW,231,0.0,0.0,30,0.00,,,0.00,VWS V14.01,2013-02-28 07:23:00,
2013-02-27 23:28:00,35.8,7.4,30.17,SW,231,0.0,0.0,30,0.00,,,0.00,VWS V14.01,2013-02-28 07:28:00,
2013-02-27 23:33:00,35.6,7.2,30.17,SW,231,0.0,0.0,30,0.00,,,0.00,VWS V14.01,2013-02-28 07:33:00,
2013-02-27 23:39:00,35.6,7.2,30.17,SW,231,0.0,0.0,30,0.00,,,0.00,VWS V14.01,2013-02-28 07:39:00,
2013-02-27 23:44:00,35.6,7.2,30.17,SW,231,0.0,0.0,30,0.00,,,0.00,VWS V14.01,2013-02-28 07:44:00,
2013-02-27 23:50:00,35.6,7.2,30.17,SW,231,0.0,0.0,30,0.00,,,0.00,VWS V14.01,2013-02-28 07:50:00,
2013-02-27 23:55:00,35.6,7.2,30.17,SW,231,0.0,0.0,30,0.00,,,0.00,VWS V14.01,2013-02-28 07:55:00,